This is the latest recevied weather packets stored in our database for station/object IZ8FMH-11. If no packets are shown the sender has not sent any weather packets the latest 1 day(s).
| Time | Temp. | Humidity | Pressure | Rain* | Wind** | Luminosity | Snow |
|---|---|---|---|---|---|---|---|
| 1788649505 | 27.22° C | 33% | 1016.6 hPa | - | - | - | - |
| 1788647705 | 27.22° C | 36% | 1016.7 hPa | - | - | - | - |
| 1788645905 | 27.78° C | 39% | 1016.5 hPa | - | - | - | - |
| 1788644105 | 27.78° C | 43% | 1016.5 hPa | - | - | - | - |
| 1788642305 | 28.33° C | 38% | 1016.6 hPa | - | - | - | - |
| 1788640505 | 28.33° C | 46% | 1016.6 hPa | - | - | - | - |
| 1788638705 | 28.89° C | 46% | 1016.5 hPa | - | - | - | - |
| 1788636905 | 29.44° C | 45% | 1016.6 hPa | - | - | - | - |
| 1788635105 | 29.44° C | 48% | 1016.3 hPa | - | - | - | - |
| 1788633305 | 30° C | 55% | 1016.1 hPa | - | - | - | - |
| 1788631505 | 30° C | 58% | 1015.8 hPa | - | - | - | - |
| 1788629705 | 30.56° C | 56% | 1015.6 hPa | - | - | - | - |
| 1788627904 | 30.56° C | 54% | 1015.4 hPa | - | - | - | - |
| 1788626104 | 30.56° C | 54% | 1015.4 hPa | - | - | - | - |
| 1788624304 | 30.56° C | 53% | 1015.4 hPa | - | - | - | - |
| 1788622504 | 30.56° C | 47% | 1015.5 hPa | - | - | - | - |
| 1788620704 | 30.56° C | 49% | 1015.5 hPa | - | - | - | - |
| 1788618904 | 30.56° C | 55% | 1015.2 hPa | - | - | - | - |
| 1788617104 | 30.56° C | 53% | 1015.5 hPa | - | - | - | - |
| 1788615304 | 30.56° C | 58% | 1015.8 hPa | - | - | - | - |
| 1788613504 | 30° C | 57% | 1015.8 hPa | - | - | - | - |
| 1788611704 | 30° C | 61% | 1016.2 hPa | - | - | - | - |
| 1788609905 | 30° C | 61% | 1016.2 hPa | - | - | - | - |
| 1788608105 | 30° C | 61% | 1016.2 hPa | - | - | - | - |
| 1788606305 | 30° C | 56% | 1016.3 hPa | - | - | - | - |
* Rain since midnight (hover to see other rain measurements)
** Current wind speed in m/s (hover to see current wind gust speed)